User: anonymous   Login
Location: Gälforsberget
(66.6500°N, 22.4167°E)
Time: 23:37:14
(UTC+00:00)
Language:

Cosmos 2221 Rocket - Orbit

View from above orbital plane
View from above orbital plane
View from above satellite
View from above satellite

Ground track
Ground track

The orbit is defined by the following mean orbital elements,

1 22237U          26159.46119360 +.00000000 +00000-0 +44466-4 0 00000
2 22237  82.5109 305.5313 0017464 277.3211  82.6017 14.80372657    05
Epoch (UTC): 08 June 2026 11:04:07
Eccentricity: 0.0017464
inclination: 82.5109°
perigee height: 616 km
apogee height: 640 km
right ascension of ascending node: 305.5313°
argument of perigee: 277.3211°
revolutions per day: 14.80372657
mean anomaly at epoch: 82.6017°

The dashed part of the orbit path shows where the satellite is in the earth's shadow,  

DLR